Location: Rochester
(43.1610°N, 77.6109°W)
Time: 09:06:37
(UTC-05:00)

Envisat - Visible Passes

Search period start: 13 December 2018 00:00
Search period end: 23 December 2018 00:00
Orbit: 764 x 766 km, 98.2° (Epoch: 13 December)

Date Brightness Start Highest point End Pass type
(mag) Time Alt. Az. Time Alt. Az. Time Alt. Az.
13 Dec 5.6 06:58:41 10° NE 07:02:50 25° E 07:06:57 10° SSE visible
13 Dec 3.5 18:14:03 10° SE 18:18:39 36° ENE 18:23:15 10° N visible
13 Dec 4.8 19:53:22 10° SSW 19:57:42 28° W 20:02:05 10° NW visible
14 Dec 6.3 06:24:21 10° ENE 06:25:40 11° E 06:26:57 10° ESE visible
14 Dec 4.3 17:38:54 10° ESE 17:42:16 18° ENE 17:45:37 10° NNE visible
14 Dec 3.4 19:15:46 10° S 19:20:47 62° W 19:25:50 10° NNW visible
15 Dec 2.9 18:39:04 10° SSE 18:44:04 62° ENE 18:49:05 10° N visible
15 Dec 5.6 20:20:20 10° SW 20:23:30 16° W 20:26:40 10° NW visible
16 Dec 5.8 06:47:52 10° NE 06:51:32 20° E 06:55:10 10° SE visible
16 Dec 3.7 18:03:12 10° SE 18:07:32 29° ENE 18:11:53 10° N visible
16 Dec 4.4 19:41:48 10° SSW 19:46:26 35° W 19:51:05 10° NNW visible
17 Dec 4.5 17:28:29 10° E 17:31:12 15° ENE 17:33:56 10° NNE visible
17 Dec 3.0 19:04:30 10° S 19:09:34 78° WSW 19:14:41 10° NNW visible
18 Dec 3.1 18:28:02 10° SE 18:32:54 49° ENE 18:37:48 10° N visible
18 Dec 5.3 20:08:25 10° SW 20:12:10 21° W 20:15:58 10° NW visible
19 Dec 5.9 06:37:12 10° NE 06:40:13 16° E 06:43:12 10° SE visible
19 Dec 4.0 17:52:26 10° ESE 17:56:26 24° ENE 18:00:26 10° NNE visible
19 Dec 4.0 19:30:21 10° S 19:35:10 44° W 19:40:03 10° NNW visible
20 Dec 4.7 17:18:23 10° ENE 17:20:10 12° ENE 17:21:58 10° NE visible
20 Dec 2.8 18:53:18 10° SSE 18:58:22 84° ENE 19:03:29 10° NNW visible
20 Dec 6.0 20:36:19 10° WSW 20:38:02 12° W 20:39:45 10° WNW visible
21 Dec 5.4 07:01:44 10° NE 07:06:01 27° E 07:10:17 10° SSE visible
21 Dec 3.4 18:17:05 10° SE 18:21:46 39° ENE 18:26:28 10° N visible
21 Dec 5.0 19:56:42 10° SSW 20:00:53 26° W 20:05:06 10° NW visible
22 Dec 6.1 06:26:54 10° ENE 06:28:53 12° E 06:30:52 10° ESE visible
22 Dec 4.2 17:41:47 10° ESE 17:45:22 20° ENE 17:48:55 10° NNE visible
22 Dec 3.5 19:18:58 10° S 19:23:57 56° W 19:28:57 10° NNW visible
